Regional Weather Roundup
Issued by NWS Jackson, KY

Home | Current Version | Previous Version | Graphics & Text | Print | Product List | Glossary On
Versions: 1 2 3 4 5 6 7 8 9 10 11 12 13 14 15 16 17 18 19 20 21 22 23 24 25 26 27 28 29 30 31 32 33 34 35 36 37 38 39 40 41 42 43 44 45 46 47 48 49 50
000
ASUS43 KJKL 221310
RWRJKL

EAST KENTUCKY HOURLY WEATHER ROUNDUP
NATIONAL WEATHER SERVICE JACKSON KY
900 AM EDT MON SEP 22 2014

NOTE: "FAIR" INDICATES FEW OR NO CLOUDS BELOW 12,000 FEET WITH
NO SIGNIFICANT WEATHER AND/OR OBSTRUCTIONS TO VISIBILITY.

* THESE REPORTS ARE NOT UNDER NWS QUALITY CONTROL AND MAY NOT
  REPORT WEATHER SUCH AS PRECIPITATION AND FOG.

KYZ079-080-083-085-087-088-110-112-115-119-120-221400
...EASTERN KENTUCKY...

CITY           SKY/WX    TMP DP  RH WIND       PRES   REMARKS
JACKSON        SUNNY     52  47  83 NW3       30.16R
LONDON         SUNNY     55  48  77 N8        30.18R
SOMERSET*      SUNNY     54  48  82 NE7       30.20R
MONTICELLO*    SUNNY     55  51  86 CALM      30.20R
WILLIAMSBURG*  SUNNY     52  52 100 CALM      30.18
MIDDLESBORO*   SUNNY     54  50  86 CALM      30.16S
HARLAN APT*    SUNNY     54  50  87 MISG      30.16R
BLACK MTN*       N/A     45  45 100 N5          N/A
PIKEVILLE APT* CLOUDY    54  50  87 NW6       30.15R
BIG SANDY*     CLOUDY    54  51  87 CALM      30.16R
MOREHEAD APT*  SUNNY     52  48  87 NW6       30.19R
$$

KYZ035-036-041-042-044-050-067-078-099-221400
...CENTRAL KENTUCKY...

CITY           SKY/WX    TMP DP  RH WIND       PRES   REMARKS
MT STERLING*   SUNNY     52  45  76 N5        30.20R
FLEMING/MASON* PTSUNNY   48  46  93 NW5       30.20R
DANVILLE*      SUNNY     52  46  82 N6        30.20R
RICHMOND*      SUNNY     50  46  87 CALM      30.18R
LEXINGTON      SUNNY     54  48  80 N9        30.20R
FRANKFORT      SUNNY     51  47  86 NW5       30.20R
$$

KYZ091>093-OHZ055-061-077-WVZ005-015-034-035-042-221400
...SOUTHERN OHIO/WEST VIRGINIA...

CITY           SKY/WX    TMP DP  RH WIND       PRES   REMARKS
COVINGTON      PTSUNNY   49  41  74 N10       30.20R
COLUMBUS       CLOUDY    52  40  63 N12       30.17R
DAYTON         CLOUDY    48  43  82 N7        30.21R
WILMINGTON     CLOUDY    50  43  77 N12       30.18R
HUNTINGTON     CLOUDY    56  51  84 SW3       30.15R
CHARLESTON     CLOUDY    55  50  83 VRB5      30.14R
PINEVILLE*     CLOUDY    56  55  95 MISG      30.19R
BECKLEY        CLOUDY    52  46  80 NW8       30.13R
BLUEFIELD      CLOUDY    53  46  77 NW7       30.14R
$$

VAZ002-007-008-TNZ017-027-036-066-071-221400
...SOUTHWEST VIRGINIA/EAST TENNESSEE...

CITY           SKY/WX    TMP DP  RH WIND       PRES   REMARKS
WISE*          CLOUDY    52  48  87 N5        30.16S
JONESVILLE*    SUNNY     57  50  77 CALM      30.17R
ABINGDON*      MOSUNNY   56  49  77 N3        30.15R
BRISTOL        MOSUNNY   58  49  72 VRB5      30.14R
KNOXVILLE      MOSUNNY   59  52  77 E6        30.13R
OAK RIDGE      SUNNY     60  49  66 E5        30.15R
CROSSVILLE     SUNNY     55  47  74 N9        30.17R
NASHVILLE      SUNNY     60  52  74 N10       30.18R
$$

...KEY TO REMARKS...
VSB - VISIBILITY IN MILES
WCI - WIND CHILL INDEX
HX  - HEAT INDEX

$$



USA.gov is the U.S. government's official web portal to all federal, state and local government web resources and services.